パンスターズ彗星

C/2014 QU2 ( PanSTARRS )

English version
Home page
Updated on March 26, 2016

---------------------------------------------------------------------

・ プロフィール

発見日 2014年8月16日
発見光度 19.8等
発見者 Pan-STARRS 1 telescope (Haleakala)

・ 軌道要素

Epoch 2014 July 2.0 TT = JDT 2456840.5
T 2014 July  9.89026 TT                                 MPC
q   2.2231955            (2000.0)            P               Q
z  +0.0041038      Peri.  320.46341     +0.85215747     +0.36729471
 +/-0.0001303      Node   333.00025     +0.18376053     -0.87695517
e   0.9908764      Incl.  124.81505     -0.48995889     +0.30991004
From 67 observations 2014 Aug. 16-Oct. 11, mean residual 0".3.

・ 光度変化

        m1 = 15.0 + 5 logΔ + 10.0 log r

---------------------------------------------------------------------

軌道要素はM.P.E.C. 2014-U124に掲載されたものです。
光度グラフはComet for Windowsで作成したものです。

---------------------------------------------------------------------

Copyright(C) Seiichi Yoshida (comet@aerith.net). All rights reserved.